Time,TemperatureF,DewpointF,PressureIn,WindDirection,WindDirectionDegrees,WindSpeedMPH,WindSpeedGustMPH,Humidity,HourlyPrecipIn,Conditions,Clouds,dailyrainin,SoftwareType,DateUTC
2013-09-20 00:00:00,61.3,57.4,30.07,South,180,0.0,-999.0,87,0.00,,,0.00,Wunderground v.1.15,2013-09-20 04:00:00,
2013-09-20 00:01:00,61.3,57.1,30.06,South,177,0.0,0.0,86,0.00,,,0.00,Wunderground v.1.15,2013-09-20 04:01:00,
2013-09-20 00:04:00,61.3,57.4,30.06,South,177,0.0,0.0,87,0.00,,,0.00,Wunderground v.1.15,2013-09-20 04:04:00,
2013-09-20 00:05:00,61.3,57.4,30.07,South,180,0.0,-999.0,87,0.00,,,0.00,Wunderground v.1.15,2013-09-20 04:05:00,
2013-09-20 00:07:00,61.2,57.3,30.07,South,177,0.0,0.0,87,0.00,,,0.00,Wunderground v.1.15,2013-09-20 04:07:00,
2013-09-20 00:10:00,61.0,57.1,30.07,South,177,0.0,0.0,87,0.00,,,0.00,Wunderground v.1.15,2013-09-20 04:10:00,
2013-09-20 00:15:00,61.1,57.2,30.07,South,180,0.0,-999.0,87,0.00,,,0.00,Wunderground v.1.15,2013-09-20 04:15:00,
2013-09-20 00:16:00,61.2,57.3,30.06,South,177,0.0,0.0,87,0.00,,,0.00,Wunderground v.1.15,2013-09-20 04:16:00,
2013-09-20 00:20:00,61.1,57.2,30.07,South,180,0.0,-999.0,87,0.00,,,0.00,Wunderground v.1.15,2013-09-20 04:20:00,
2013-09-20 00:21:00,61.1,57.2,30.07,South,177,0.0,0.0,87,0.00,,,0.00,Wunderground v.1.15,2013-09-20 04:21:00,
2013-09-20 00:22:00,61.1,57.2,30.07,South,177,1.0,1.0,87,0.00,,,0.00,Wunderground v.1.15,2013-09-20 04:22:00,
2013-09-20 00:25:00,60.8,56.9,30.07,South,180,0.0,-999.0,87,0.00,,,0.00,Wunderground v.1.15,2013-09-20 04:25:00,
2013-09-20 00:27:00,60.7,57.1,30.07,South,177,0.0,1.0,88,0.00,,,0.00,Wunderground v.1.15,2013-09-20 04:27:00,
2013-09-20 00:30:00,60.5,56.9,30.07,South,180,0.0,-999.0,88,0.00,,,0.00,Wunderground v.1.15,2013-09-20 04:30:00,
2013-09-20 00:34:00,60.3,57.0,30.07,South,177,0.0,0.0,89,0.00,,,0.00,Wunderground v.1.15,2013-09-20 04:34:00,
2013-09-20 00:35:00,60.2,56.9,30.07,South,180,0.0,-999.0,89,0.00,,,0.00,Wunderground v.1.15,2013-09-20 04:35:00,
2013-09-20 00:39:00,60.0,56.7,30.07,South,177,0.0,1.0,89,0.00,,,0.00,Wunderground v.1.15,2013-09-20 04:39:00,
2013-09-20 00:40:00,60.0,56.7,30.07,South,180,0.0,-999.0,89,0.00,,,0.00,Wunderground v.1.15,2013-09-20 04:40:00,
2013-09-20 00:45:00,60.0,57.1,30.07,South,177,0.0,1.0,90,0.00,,,0.00,Wunderground v.1.15,2013-09-20 04:45:00,
2013-09-20 00:50:00,60.1,57.2,30.07,South,177,0.0,0.0,90,0.00,,,0.00,Wunderground v.1.15,2013-09-20 04:50:00,
2013-09-20 00:55:00,60.4,57.5,30.07,South,177,0.0,1.0,90,0.00,,,0.00,Wunderground v.1.15,2013-09-20 04:55:00,
2013-09-20 01:00:00,60.5,57.6,30.07,South,180,0.0,-999.0,90,0.00,,,0.00,Wunderground v.1.15,2013-09-20 05:00:00,
2013-09-20 01:01:00,60.5,57.6,30.07,South,177,0.0,0.0,90,0.00,,,0.00,Wunderground v.1.15,2013-09-20 05:01:00,
2013-09-20 01:05:00,60.5,57.6,30.07,South,180,0.0,-999.0,90,0.00,,,0.00,Wunderground v.1.15,2013-09-20 05:05:00,
2013-09-20 01:07:00,60.5,57.6,30.07,South,177,0.0,1.0,90,0.00,,,0.00,Wunderground v.1.15,2013-09-20 05:07:00,
2013-09-20 01:10:00,60.4,57.5,30.07,South,180,0.0,-999.0,90,0.00,,,0.00,Wunderground v.1.15,2013-09-20 05:10:00,
2013-09-20 01:12:00,60.4,57.5,30.07,South,177,0.0,1.0,90,0.00,,,0.00,Wunderground v.1.15,2013-09-20 05:12:00,
2013-09-20 01:15:00,60.4,57.5,30.07,South,180,0.0,-999.0,90,0.00,,,0.00,Wunderground v.1.15,2013-09-20 05:15:00,
2013-09-20 01:17:00,60.4,57.5,30.08,South,177,0.0,1.0,90,0.00,,,0.00,Wunderground v.1.15,2013-09-20 05:17:00,
2013-09-20 01:20:00,60.4,57.5,30.08,South,180,0.0,-999.0,90,0.00,,,0.00,Wunderground v.1.15,2013-09-20 05:20:00,
2013-09-20 01:22:00,60.4,57.5,30.08,South,177,1.0,1.0,90,0.00,,,0.00,Wunderground v.1.15,2013-09-20 05:22:00,
2013-09-20 01:25:00,60.4,57.5,30.08,South,180,0.0,-999.0,90,0.00,,,0.00,Wunderground v.1.15,2013-09-20 05:25:00,
2013-09-20 01:27:00,60.4,57.5,30.08,South,177,1.0,1.0,90,0.00,,,0.00,Wunderground v.1.15,2013-09-20 05:27:00,
2013-09-20 01:30:00,60.3,57.4,30.08,South,180,1.0,-999.0,90,0.00,,,0.00,Wunderground v.1.15,2013-09-20 05:30:00,
2013-09-20 01:33:00,60.3,57.4,30.08,South,177,0.0,0.0,90,0.00,,,0.00,Wunderground v.1.15,2013-09-20 05:33:00,
2013-09-20 01:35:00,60.4,57.5,30.08,South,180,0.0,-999.0,90,0.00,,,0.00,Wunderground v.1.15,2013-09-20 05:35:00,
2013-09-20 01:38:00,60.3,57.4,30.08,South,177,0.0,1.0,90,0.00,,,0.00,Wunderground v.1.15,2013-09-20 05:38:00,
2013-09-20 01:40:00,60.3,57.4,30.08,South,180,0.0,-999.0,90,0.00,,,0.00,Wunderground v.1.15,2013-09-20 05:40:00,
2013-09-20 01:44:00,60.2,57.3,30.08,South,177,0.0,0.0,90,0.00,,,0.00,Wunderground v.1.15,2013-09-20 05:44:00,
2013-09-20 01:45:00,60.1,57.5,30.08,South,180,0.0,-999.0,91,0.00,,,0.00,Wunderground v.1.15,2013-09-20 05:45:00,
2013-09-20 01:50:00,60.0,57.4,30.08,South,177,0.0,1.0,91,0.00,,,0.00,Wunderground v.1.15,2013-09-20 05:50:00,
2013-09-20 01:55:00,60.0,57.4,30.07,South,177,0.0,0.0,91,0.00,,,0.00,Wunderground v.1.15,2013-09-20 05:55:00,
2013-09-20 02:00:00,59.9,57.3,30.08,South,180,0.0,-999.0,91,0.00,,,0.00,Wunderground v.1.15,2013-09-20 06:00:00,
2013-09-20 02:01:00,59.9,57.3,30.07,South,177,0.0,0.0,91,0.00,,,0.00,Wunderground v.1.15,2013-09-20 06:01:00,
2013-09-20 02:05:00,59.9,57.3,30.07,South,180,0.0,-999.0,91,0.00,,,0.00,Wunderground v.1.15,2013-09-20 06:05:00,
2013-09-20 02:06:00,59.9,57.3,30.08,South,177,0.0,1.0,91,0.00,,,0.00,Wunderground v.1.15,2013-09-20 06:06:00,
2013-09-20 02:10:00,59.9,57.3,30.07,South,180,0.0,-999.0,91,0.00,,,0.00,Wunderground v.1.15,2013-09-20 06:10:00,
2013-09-20 02:11:00,59.9,57.3,30.07,South,177,0.0,0.0,91,0.00,,,0.00,Wunderground v.1.15,2013-09-20 06:11:00,
2013-09-20 02:15:00,59.9,57.3,30.07,South,180,0.0,-999.0,91,0.00,,,0.00,Wunderground v.1.15,2013-09-20 06:15:00,
2013-09-20 02:16:00,59.8,57.2,30.07,South,177,0.0,1.0,91,0.00,,,0.00,Wunderground v.1.15,2013-09-20 06:16:00,
2013-09-20 02:20:00,59.9,57.3,30.07,South,180,0.0,-999.0,91,0.00,,,0.00,Wunderground v.1.15,2013-09-20 06:20:00,
2013-09-20 02:21:00,59.9,57.3,30.07,South,188,0.0,1.0,91,0.00,,,0.00,Wunderground v.1.15,2013-09-20 06:21:00,
2013-09-20 02:25:00,59.8,57.2,30.07,South,180,0.0,-999.0,91,0.00,,,0.00,Wunderground v.1.15,2013-09-20 06:25:00,
2013-09-20 02:26:00,59.8,57.2,30.07,South,188,0.0,2.0,91,0.00,,,0.00,Wunderground v.1.15,2013-09-20 06:26:00,
2013-09-20 02:30:00,59.8,57.2,30.07,South,180,0.0,-999.0,91,0.00,,,0.00,Wunderground v.1.15,2013-09-20 06:30:00,
2013-09-20 02:31:00,59.8,57.2,30.07,South,188,0.0,1.0,91,0.00,,,0.00,Wunderground v.1.15,2013-09-20 06:31:00,
2013-09-20 02:35:00,59.7,57.1,30.07,South,180,0.0,-999.0,91,0.00,,,0.00,Wunderground v.1.15,2013-09-20 06:35:00,
2013-09-20 02:36:00,59.7,57.1,30.07,South,188,0.0,1.0,91,0.00,,,0.00,Wunderground v.1.15,2013-09-20 06:36:00,
2013-09-20 02:40:00,59.6,57.3,30.07,South,180,0.0,-999.0,92,0.00,,,0.00,Wunderground v.1.15,2013-09-20 06:40:00,
2013-09-20 02:41:00,59.6,57.3,30.07,South,188,0.0,1.0,92,0.00,,,0.00,Wunderground v.1.15,2013-09-20 06:41:00,
2013-09-20 02:45:00,59.6,57.3,30.07,South,180,0.0,-999.0,92,0.00,,,0.00,Wunderground v.1.15,2013-09-20 06:45:00,
2013-09-20 02:46:00,59.6,57.3,30.07,South,188,0.0,1.0,92,0.00,,,0.00,Wunderground v.1.15,2013-09-20 06:46:00,
2013-09-20 02:50:00,59.5,57.2,30.07,South,180,0.0,-999.0,92,0.00,,,0.00,Wunderground v.1.15,2013-09-20 06:50:00,
2013-09-20 02:51:00,59.5,57.2,30.07,South,188,0.0,1.0,92,0.00,,,0.00,Wunderground v.1.15,2013-09-20 06:51:00,
2013-09-20 02:55:00,59.4,56.8,30.07,South,180,0.0,-999.0,91,0.00,,,0.00,Wunderground v.1.15,2013-09-20 06:55:00,
2013-09-20 02:56:00,59.4,56.8,30.07,South,188,0.0,1.0,91,0.00,,,0.00,Wunderground v.1.15,2013-09-20 06:56:00,
2013-09-20 03:00:00,59.3,56.7,30.06,South,180,0.0,-999.0,91,0.00,,,0.00,Wunderground v.1.15,2013-09-20 07:00:00,
2013-09-20 03:01:00,59.3,56.7,30.07,South,188,0.0,1.0,91,0.00,,,0.00,Wunderground v.1.15,2013-09-20 07:01:00,
2013-09-20 03:05:00,59.2,56.9,30.06,South,180,0.0,-999.0,92,0.00,,,0.00,Wunderground v.1.15,2013-09-20 07:05:00,
2013-09-20 03:06:00,59.2,56.9,30.06,South,188,0.0,1.0,92,0.00,,,0.00,Wunderground v.1.15,2013-09-20 07:06:00,
2013-09-20 03:10:00,59.1,56.8,30.06,South,180,0.0,-999.0,92,0.00,,,0.00,Wunderground v.1.15,2013-09-20 07:10:00,
2013-09-20 03:11:00,59.1,56.8,30.06,South,188,0.0,1.0,92,0.00,,,0.00,Wunderground v.1.15,2013-09-20 07:11:00,
2013-09-20 03:15:00,59.0,56.7,30.06,South,180,0.0,-999.0,92,0.00,,,0.00,Wunderground v.1.15,2013-09-20 07:15:00,
2013-09-20 03:16:00,59.0,56.7,30.06,South,188,0.0,1.0,92,0.00,,,0.00,Wunderground v.1.15,2013-09-20 07:16:00,
2013-09-20 03:20:00,58.9,56.6,30.06,South,180,0.0,-999.0,92,0.00,,,0.00,Wunderground v.1.15,2013-09-20 07:20:00,
2013-09-20 03:21:00,58.9,56.6,30.06,South,188,1.0,1.0,92,0.00,,,0.00,Wunderground v.1.15,2013-09-20 07:21:00,
2013-09-20 03:25:00,58.7,56.4,30.06,South,180,0.0,-999.0,92,0.00,,,0.00,Wunderground v.1.15,2013-09-20 07:25:00,
2013-09-20 03:26:00,58.7,56.4,30.06,South,188,0.0,1.0,92,0.00,,,0.00,Wunderground v.1.15,2013-09-20 07:26:00,
2013-09-20 03:30:00,58.7,56.4,30.06,South,180,0.0,-999.0,92,0.00,,,0.00,Wunderground v.1.15,2013-09-20 07:30:00,
2013-09-20 03:31:00,58.7,56.4,30.06,South,188,0.0,2.0,92,0.00,,,0.00,Wunderground v.1.15,2013-09-20 07:31:00,
2013-09-20 03:35:00,58.8,56.5,30.06,South,180,0.0,-999.0,92,0.00,,,0.00,Wunderground v.1.15,2013-09-20 07:35:00,
2013-09-20 03:36:00,58.8,56.5,30.06,South,188,0.0,2.0,92,0.00,,,0.00,Wunderground v.1.15,2013-09-20 07:36:00,
2013-09-20 03:40:00,58.6,56.3,30.06,South,180,0.0,-999.0,92,0.00,,,0.00,Wunderground v.1.15,2013-09-20 07:40:00,
2013-09-20 03:41:00,58.6,56.3,30.06,South,188,0.0,1.0,92,0.00,,,0.00,Wunderground v.1.15,2013-09-20 07:41:00,
2013-09-20 03:45:00,58.6,56.3,30.06,South,180,0.0,-999.0,92,0.00,,,0.00,Wunderground v.1.15,2013-09-20 07:45:00,
2013-09-20 03:47:00,58.5,56.2,30.06,South,188,0.0,1.0,92,0.00,,,0.00,Wunderground v.1.15,2013-09-20 07:47:00,
2013-09-20 03:50:00,58.5,56.2,30.06,South,180,0.0,-999.0,92,0.00,,,0.00,Wunderground v.1.15,2013-09-20 07:50:00,
2013-09-20 03:52:00,58.5,56.2,30.06,South,188,0.0,0.0,92,0.00,,,0.00,Wunderground v.1.15,2013-09-20 07:52:00,
2013-09-20 03:55:00,58.5,56.2,30.06,N/A,-737280,0.0,-999.0,92,0.00,,,0.00,Wunderground v.1.15,2013-09-20 07:55:00,
2013-09-20 03:57:00,58.4,56.1,30.06,South,188,0.0,0.0,92,0.00,,,0.00,Wunderground v.1.15,2013-09-20 07:57:00,
2013-09-20 04:00:00,58.3,56.0,30.07,South,180,0.0,-999.0,92,0.00,,,0.00,Wunderground v.1.15,2013-09-20 08:00:00,
2013-09-20 04:02:00,58.3,56.0,30.07,South,188,0.0,0.0,92,0.00,,,0.00,Wunderground v.1.15,2013-09-20 08:02:00,
2013-09-20 04:05:00,58.3,56.0,30.06,N/A,-737280,0.0,-999.0,92,0.00,,,0.00,Wunderground v.1.15,2013-09-20 08:05:00,
2013-09-20 04:07:00,58.2,55.9,30.06,South,188,0.0,1.0,92,0.00,,,0.00,Wunderground v.1.15,2013-09-20 08:07:00,
2013-09-20 04:10:00,58.1,55.8,30.06,South,180,0.0,-999.0,92,0.00,,,0.00,Wunderground v.1.15,2013-09-20 08:10:00,
2013-09-20 04:12:00,58.1,55.8,30.06,South,188,0.0,0.0,92,0.00,,,0.00,Wunderground v.1.15,2013-09-20 08:12:00,
2013-09-20 04:15:00,58.1,55.8,30.06,N/A,-737280,0.0,-999.0,92,0.00,,,0.00,Wunderground v.1.15,2013-09-20 08:15:00,
2013-09-20 04:17:00,58.1,55.8,30.06,South,188,0.0,0.0,92,0.00,,,0.00,Wunderground v.1.15,2013-09-20 08:17:00,
2013-09-20 04:20:00,58.0,55.7,30.06,N/A,-737280,0.0,-999.0,92,0.00,,,0.00,Wunderground v.1.15,2013-09-20 08:20:00,
2013-09-20 04:22:00,58.0,55.7,30.06,South,188,0.0,0.0,92,0.00,,,0.00,Wunderground v.1.15,2013-09-20 08:22:00,
2013-09-20 04:25:00,58.0,55.7,30.06,N/A,-737280,0.0,-999.0,92,0.00,,,0.00,Wunderground v.1.15,2013-09-20 08:25:00,
2013-09-20 04:27:00,57.9,55.6,30.06,South,188,0.0,0.0,92,0.00,,,0.00,Wunderground v.1.15,2013-09-20 08:27:00,
2013-09-20 04:30:00,57.9,55.6,30.06,South,180,0.0,-999.0,92,0.00,,,0.00,Wunderground v.1.15,2013-09-20 08:30:00,
2013-09-20 04:32:00,57.8,55.5,30.06,South,188,0.0,0.0,92,0.00,,,0.00,Wunderground v.1.15,2013-09-20 08:32:00,
2013-09-20 04:35:00,57.8,55.5,30.06,N/A,-737280,0.0,-999.0,92,0.00,,,0.00,Wunderground v.1.15,2013-09-20 08:35:00,
2013-09-20 04:37:00,57.8,55.5,30.06,South,188,0.0,0.0,92,0.00,,,0.00,Wunderground v.1.15,2013-09-20 08:37:00,
2013-09-20 04:40:00,57.7,55.4,30.06,N/A,-737280,0.0,-999.0,92,0.00,,,0.00,Wunderground v.1.15,2013-09-20 08:40:00,
2013-09-20 04:42:00,57.7,55.7,30.06,South,188,0.0,0.0,93,0.00,,,0.00,Wunderground v.1.15,2013-09-20 08:42:00,
2013-09-20 04:45:00,57.7,55.7,30.06,N/A,-737280,0.0,-999.0,93,0.00,,,0.00,Wunderground v.1.15,2013-09-20 08:45:00,
2013-09-20 04:47:00,57.7,55.7,30.06,South,188,0.0,0.0,93,0.00,,,0.00,Wunderground v.1.15,2013-09-20 08:47:00,
2013-09-20 04:50:00,57.7,55.7,30.07,N/A,-737280,0.0,-999.0,93,0.00,,,0.00,Wunderground v.1.15,2013-09-20 08:50:00,
2013-09-20 04:52:00,57.6,55.6,30.06,South,188,0.0,0.0,93,0.00,,,0.00,Wunderground v.1.15,2013-09-20 08:52:00,
2013-09-20 04:55:00,57.5,55.2,30.07,N/A,-737280,0.0,-999.0,92,0.00,,,0.00,Wunderground v.1.15,2013-09-20 08:55:00,
2013-09-20 04:57:00,57.4,55.4,30.06,South,188,0.0,0.0,93,0.00,,,0.00,Wunderground v.1.15,2013-09-20 08:57:00,
2013-09-20 05:00:00,57.4,55.4,30.07,N/A,-737280,0.0,-999.0,93,0.00,,,0.00,Wunderground v.1.15,2013-09-20 09:00:00,
2013-09-20 05:02:00,57.4,55.4,30.07,South,188,0.0,0.0,93,0.00,,,0.00,Wunderground v.1.15,2013-09-20 09:02:00,
2013-09-20 05:05:00,57.4,55.4,30.07,N/A,-737280,0.0,-999.0,93,0.00,,,0.00,Wunderground v.1.15,2013-09-20 09:05:00,
2013-09-20 05:07:00,57.4,55.4,30.07,South,188,0.0,0.0,93,0.00,,,0.00,Wunderground v.1.15,2013-09-20 09:07:00,
2013-09-20 05:10:00,57.4,55.4,30.07,N/A,-737280,0.0,-999.0,93,0.00,,,0.00,Wunderground v.1.15,2013-09-20 09:10:00,
2013-09-20 05:12:00,57.4,55.4,30.07,South,188,0.0,0.0,93,0.00,,,0.00,Wunderground v.1.15,2013-09-20 09:12:00,
2013-09-20 05:15:00,57.4,55.4,30.07,N/A,-737280,0.0,-999.0,93,0.00,,,0.00,Wunderground v.1.15,2013-09-20 09:15:00,
2013-09-20 05:17:00,57.4,55.4,30.07,South,188,0.0,0.0,93,0.00,,,0.00,Wunderground v.1.15,2013-09-20 09:17:00,
2013-09-20 05:20:00,57.5,55.5,30.07,N/A,-737280,0.0,-999.0,93,0.00,,,0.00,Wunderground v.1.15,2013-09-20 09:20:00,
2013-09-20 05:22:00,57.5,55.5,30.07,South,188,0.0,0.0,93,0.00,,,0.00,Wunderground v.1.15,2013-09-20 09:22:00,
2013-09-20 05:25:00,57.5,55.5,30.07,N/A,-737280,0.0,-999.0,93,0.00,,,0.00,Wunderground v.1.15,2013-09-20 09:25:00,
2013-09-20 05:27:00,57.5,55.5,30.07,South,188,0.0,0.0,93,0.00,,,0.00,Wunderground v.1.15,2013-09-20 09:27:00,
2013-09-20 05:30:00,57.4,55.4,30.07,N/A,-737280,0.0,-999.0,93,0.00,,,0.00,Wunderground v.1.15,2013-09-20 09:30:00,
2013-09-20 05:32:00,57.4,55.4,30.07,South,188,0.0,0.0,93,0.00,,,0.00,Wunderground v.1.15,2013-09-20 09:32:00,
2013-09-20 05:35:00,57.3,55.3,30.07,N/A,-737280,0.0,-999.0,93,0.00,,,0.00,Wunderground v.1.15,2013-09-20 09:35:00,
2013-09-20 05:37:00,57.2,55.2,30.07,South,188,0.0,0.0,93,0.00,,,0.00,Wunderground v.1.15,2013-09-20 09:37:00,
2013-09-20 05:40:00,57.1,55.1,30.07,N/A,-737280,0.0,-999.0,93,0.00,,,0.00,Wunderground v.1.15,2013-09-20 09:40:00,
2013-09-20 05:42:00,57.1,55.1,30.07,South,188,0.0,0.0,93,0.00,,,0.00,Wunderground v.1.15,2013-09-20 09:42:00,
2013-09-20 05:45:00,57.1,55.1,30.07,N/A,-737280,0.0,-999.0,93,0.00,,,0.00,Wunderground v.1.15,2013-09-20 09:45:00,
2013-09-20 05:48:00,57.0,55.0,30.06,South,188,0.0,0.0,93,0.00,,,0.00,Wunderground v.1.15,2013-09-20 09:48:00,
2013-09-20 05:50:00,57.1,55.1,30.06,N/A,-737280,0.0,-999.0,93,0.00,,,0.00,Wunderground v.1.15,2013-09-20 09:50:00,
2013-09-20 05:53:00,57.1,55.1,30.06,South,188,0.0,0.0,93,0.00,,,0.00,Wunderground v.1.15,2013-09-20 09:53:00,
2013-09-20 05:55:00,57.0,55.3,30.06,N/A,-737280,0.0,-999.0,94,0.00,,,0.00,Wunderground v.1.15,2013-09-20 09:55:00,
2013-09-20 05:58:00,56.8,54.8,30.06,South,188,0.0,0.0,93,0.00,,,0.00,Wunderground v.1.15,2013-09-20 09:58:00,
2013-09-20 06:00:00,56.8,55.1,30.06,N/A,-737280,0.0,-999.0,94,0.00,,,0.00,Wunderground v.1.15,2013-09-20 10:00:00,
2013-09-20 06:03:00,56.8,55.1,30.06,South,188,0.0,0.0,94,0.00,,,0.00,Wunderground v.1.15,2013-09-20 10:03:00,
2013-09-20 06:05:00,56.8,55.1,30.06,N/A,-737280,0.0,-999.0,94,0.00,,,0.00,Wunderground v.1.15,2013-09-20 10:05:00,
2013-09-20 06:08:00,56.8,55.1,30.06,South,188,0.0,0.0,94,0.00,,,0.00,Wunderground v.1.15,2013-09-20 10:08:00,
2013-09-20 06:10:00,56.8,55.1,30.06,N/A,-737280,0.0,-999.0,94,0.00,,,0.00,Wunderground v.1.15,2013-09-20 10:10:00,
2013-09-20 06:13:00,56.8,55.1,30.06,South,188,0.0,0.0,94,0.00,,,0.00,Wunderground v.1.15,2013-09-20 10:13:00,
2013-09-20 06:15:00,56.8,55.1,30.06,N/A,-737280,0.0,-999.0,94,0.00,,,0.00,Wunderground v.1.15,2013-09-20 10:15:00,
2013-09-20 06:18:00,56.8,55.1,30.06,South,188,0.0,0.0,94,0.00,,,0.00,Wunderground v.1.15,2013-09-20 10:18:00,
2013-09-20 06:20:00,-999.9,-99.9,30.06,N/A,-737280,0.0,-999.0,94,0.00,,,0.00,Wunderground v.1.15,2013-09-20 10:20:00,
2013-09-20 06:23:00,-999.9,-99.9,30.06,South,188,0.0,0.0,255,-99.99,,,0.00,Wunderground v.1.15,2013-09-20 10:23:00,
2013-09-20 06:25:00,-999.9,-99.9,30.06,N/A,-737280,0.0,-999.0,-32768,0.00,,,0.00,Wunderground v.1.15,2013-09-20 10:25:00,
2013-09-20 06:28:00,-999.9,-99.9,30.06,South,188,0.0,0.0,255,-99.99,,,0.00,Wunderground v.1.15,2013-09-20 10:28:00,
2013-09-20 06:30:00,-999.9,-99.9,30.06,N/A,-737280,0.0,-999.0,-32768,0.00,,,0.00,Wunderground v.1.15,2013-09-20 10:30:00,
2013-09-20 06:33:00,-999.9,-99.9,30.06,South,188,0.0,0.0,255,-99.99,,,0.00,Wunderground v.1.15,2013-09-20 10:33:00,
2013-09-20 06:35:00,-999.9,-99.9,30.06,N/A,-737280,0.0,-999.0,-32768,0.00,,,0.00,Wunderground v.1.15,2013-09-20 10:35:00,
2013-09-20 06:38:00,-999.9,-99.9,30.06,South,188,0.0,0.0,255,-99.99,,,0.00,Wunderground v.1.15,2013-09-20 10:38:00,
2013-09-20 06:40:00,-999.9,-99.9,30.06,N/A,-737280,0.0,-999.0,-32768,0.00,,,0.00,Wunderground v.1.15,2013-09-20 10:40:00,
2013-09-20 06:43:00,-999.9,-99.9,30.06,South,188,0.0,0.0,255,-99.99,,,0.00,Wunderground v.1.15,2013-09-20 10:43:00,
2013-09-20 06:45:00,-999.9,-99.9,30.06,N/A,-737280,0.0,-999.0,-32768,0.00,,,0.00,Wunderground v.1.15,2013-09-20 10:45:00,
2013-09-20 06:48:00,-999.9,-99.9,30.06,South,188,0.0,0.0,255,-99.99,,,0.00,Wunderground v.1.15,2013-09-20 10:48:00,
2013-09-20 06:50:00,-999.9,-99.9,30.06,N/A,-737280,0.0,-999.0,-32768,0.00,,,0.00,Wunderground v.1.15,2013-09-20 10:50:00,
2013-09-20 06:53:00,-999.9,-99.9,30.06,South,188,0.0,0.0,255,-99.99,,,0.00,Wunderground v.1.15,2013-09-20 10:53:00,
2013-09-20 06:55:00,-999.9,-99.9,30.06,N/A,-737280,0.0,-999.0,-32768,0.00,,,0.00,Wunderground v.1.15,2013-09-20 10:55:00,
2013-09-20 06:58:00,-999.9,-99.9,30.06,South,188,0.0,0.0,255,-99.99,,,0.00,Wunderground v.1.15,2013-09-20 10:58:00,
2013-09-20 07:00:00,-999.9,-99.9,30.06,N/A,-737280,0.0,-999.0,-32768,0.00,,,0.00,Wunderground v.1.15,2013-09-20 11:00:00,
2013-09-20 07:03:00,-999.9,-99.9,30.07,South,188,0.0,0.0,255,-99.99,,,0.00,Wunderground v.1.15,2013-09-20 11:03:00,
2013-09-20 07:05:00,-999.9,-99.9,30.06,N/A,-737280,0.0,-999.0,-32768,0.00,,,0.00,Wunderground v.1.15,2013-09-20 11:05:00,
2013-09-20 07:08:00,-999.9,-99.9,30.07,South,188,0.0,0.0,255,-99.99,,,0.00,Wunderground v.1.15,2013-09-20 11:08:00,
2013-09-20 07:10:00,-999.9,-99.9,30.07,N/A,-737280,0.0,-999.0,-32768,0.00,,,0.00,Wunderground v.1.15,2013-09-20 11:10:00,
2013-09-20 07:13:00,-999.9,-99.9,30.07,South,188,0.0,0.0,255,-99.99,,,0.00,Wunderground v.1.15,2013-09-20 11:13:00,
2013-09-20 07:15:00,-999.9,-99.9,30.07,N/A,-737280,0.0,-999.0,-32768,0.00,,,0.00,Wunderground v.1.15,2013-09-20 11:15:00,
2013-09-20 07:18:00,-999.9,-99.9,30.07,South,188,0.0,0.0,255,-99.99,,,0.00,Wunderground v.1.15,2013-09-20 11:18:00,
2013-09-20 07:20:00,-999.9,-99.9,30.07,N/A,-737280,0.0,-999.0,-32768,0.00,,,0.00,Wunderground v.1.15,2013-09-20 11:20:00,
2013-09-20 07:23:00,-999.9,-99.9,30.07,South,188,0.0,0.0,255,-99.99,,,0.00,Wunderground v.1.15,2013-09-20 11:23:00,
2013-09-20 07:25:00,-999.9,-99.9,30.07,N/A,-737280,0.0,-999.0,-32768,0.00,,,0.00,Wunderground v.1.15,2013-09-20 11:25:00,
2013-09-20 07:28:00,-999.9,-99.9,30.07,South,188,0.0,0.0,255,-99.99,,,0.00,Wunderground v.1.15,2013-09-20 11:28:00,
2013-09-20 07:30:00,-999.9,-99.9,30.07,N/A,-737280,0.0,-999.0,-32768,0.00,,,0.00,Wunderground v.1.15,2013-09-20 11:30:00,
2013-09-20 07:33:00,-999.9,-99.9,30.07,South,188,0.0,0.0,255,-99.99,,,0.00,Wunderground v.1.15,2013-09-20 11:33:00,
2013-09-20 07:35:00,-999.9,-99.9,30.07,N/A,-737280,0.0,-999.0,-32768,0.00,,,0.00,Wunderground v.1.15,2013-09-20 11:35:00,
2013-09-20 07:38:00,-999.9,-99.9,30.07,South,188,0.0,0.0,255,-99.99,,,0.00,Wunderground v.1.15,2013-09-20 11:38:00,
2013-09-20 07:43:00,-999.9,-99.9,30.07,South,188,0.0,1.0,255,-99.99,,,0.00,Wunderground v.1.15,2013-09-20 11:43:00,
2013-09-20 07:48:00,58.0,56.3,30.07,South,188,0.0,1.0,94,0.00,,,0.00,Wunderground v.1.15,2013-09-20 11:48:00,
2013-09-20 07:53:00,58.7,56.7,30.07,South,188,0.0,1.0,93,0.00,,,0.00,Wunderground v.1.15,2013-09-20 11:53:00,
2013-09-20 07:58:00,59.2,57.2,30.07,South,188,0.0,0.0,93,0.00,,,0.00,Wunderground v.1.15,2013-09-20 11:58:00,
2013-09-20 08:03:00,59.7,57.4,30.07,South,188,0.0,1.0,92,0.00,,,0.00,Wunderground v.1.15,2013-09-20 12:03:00,
2013-09-20 08:09:00,60.0,57.4,30.07,South,188,0.0,1.0,91,0.00,,,0.00,Wunderground v.1.15,2013-09-20 12:09:00,
2013-09-20 08:14:00,60.8,58.2,30.07,South,188,0.0,1.0,91,0.00,,,0.00,Wunderground v.1.15,2013-09-20 12:14:00,
2013-09-20 08:19:00,60.7,57.7,30.07,South,188,0.0,1.0,90,0.00,,,0.00,Wunderground v.1.15,2013-09-20 12:19:00,
2013-09-20 08:24:00,60.6,57.3,30.07,South,188,0.0,0.0,89,0.00,,,0.00,Wunderground v.1.15,2013-09-20 12:24:00,
2013-09-20 08:29:00,60.7,57.4,30.07,South,188,2.0,3.0,89,0.00,,,0.00,Wunderground v.1.15,2013-09-20 12:29:00,
2013-09-20 08:34:00,61.1,57.8,30.07,SSW,198,1.0,3.0,89,0.00,,,0.00,Wunderground v.1.15,2013-09-20 12:34:00,
2013-09-20 08:39:00,61.4,57.8,30.08,WSW,237,0.0,3.0,88,0.00,,,0.00,Wunderground v.1.15,2013-09-20 12:39:00,
2013-09-20 08:44:00,61.5,57.9,30.08,SSW,207,0.0,3.0,88,0.00,,,0.00,Wunderground v.1.15,2013-09-20 12:44:00,
2013-09-20 08:49:00,61.8,58.2,30.07,SSW,207,0.0,3.0,88,0.00,,,0.00,Wunderground v.1.15,2013-09-20 12:49:00,
2013-09-20 08:54:00,62.1,58.2,30.07,SSW,207,0.0,2.0,87,0.00,,,0.00,Wunderground v.1.15,2013-09-20 12:54:00,
2013-09-20 08:59:00,62.4,58.5,30.07,SW,217,0.0,3.0,87,0.00,,,0.00,Wunderground v.1.15,2013-09-20 12:59:00,
2013-09-20 09:04:00,62.9,58.6,30.07,SSW,213,2.0,4.0,86,0.00,,,0.00,Wunderground v.1.15,2013-09-20 13:04:00,
2013-09-20 09:09:00,63.3,58.7,30.07,SW,223,2.0,4.0,85,0.00,,,0.00,Wunderground v.1.15,2013-09-20 13:09:00,
2013-09-20 09:14:00,63.6,59.0,30.07,SW,221,1.0,3.0,85,0.00,,,0.00,Wunderground v.1.15,2013-09-20 13:14:00,
2013-09-20 09:19:00,63.9,59.0,30.07,SSW,212,2.0,4.0,84,0.00,,,0.00,Wunderground v.1.15,2013-09-20 13:19:00,
2013-09-20 09:24:00,64.3,59.0,30.07,SSW,206,2.0,5.0,83,0.00,,,0.00,Wunderground v.1.15,2013-09-20 13:24:00,
2013-09-20 09:29:00,64.4,59.1,30.07,SSW,196,1.0,5.0,83,0.00,,,0.00,Wunderground v.1.15,2013-09-20 13:29:00,
2013-09-20 09:34:00,65.0,59.7,30.07,SSW,195,1.0,4.0,83,0.00,,,0.00,Wunderground v.1.15,2013-09-20 13:34:00,
2013-09-20 09:39:00,65.4,59.8,30.07,SSW,207,1.0,4.0,82,0.00,,,0.00,Wunderground v.1.15,2013-09-20 13:39:00,
2013-09-20 09:44:00,65.5,59.5,30.07,SSW,207,0.0,2.0,81,0.00,,,0.00,Wunderground v.1.15,2013-09-20 13:44:00,
2013-09-20 09:49:00,65.9,59.6,30.07,SW,217,0.0,2.0,80,0.00,,,0.00,Wunderground v.1.15,2013-09-20 13:49:00,
2013-09-20 09:54:00,66.5,60.1,30.07,SW,214,1.0,3.0,80,0.00,,,0.00,Wunderground v.1.15,2013-09-20 13:54:00,
2013-09-20 09:59:00,67.2,60.8,30.07,SSW,205,1.0,4.0,80,0.00,,,0.00,Wunderground v.1.15,2013-09-20 13:59:00,
2013-09-20 10:04:00,67.5,60.8,30.06,SSW,203,1.0,3.0,79,0.00,,,0.00,Wunderground v.1.15,2013-09-20 14:04:00,
2013-09-20 10:09:00,67.4,59.9,30.06,SE,131,1.0,3.0,77,0.00,,,0.00,Wunderground v.1.15,2013-09-20 14:09:00,
2013-09-20 10:14:00,68.3,61.5,30.06,SSW,193,3.0,3.0,79,0.00,,,0.00,Wunderground v.1.15,2013-09-20 14:14:00,
2013-09-20 10:19:00,69.5,60.8,30.06,SSW,201,0.0,5.0,74,0.00,,,0.00,Wunderground v.1.15,2013-09-20 14:19:00,
2013-09-20 10:24:00,69.7,61.0,30.06,SW,222,0.0,5.0,74,0.00,,,0.00,Wunderground v.1.15,2013-09-20 14:24:00,
2013-09-20 10:29:00,71.3,62.2,30.06,SSW,206,0.0,5.0,73,0.00,,,0.00,Wunderground v.1.15,2013-09-20 14:29:00,
2013-09-20 10:35:00,71.4,61.9,30.06,SSW,213,1.0,5.0,72,0.00,,,0.00,Wunderground v.1.15,2013-09-20 14:35:00,
2013-09-20 10:40:00,72.4,64.0,30.06,SSW,212,3.0,3.0,75,0.00,,,0.00,Wunderground v.1.15,2013-09-20 14:40:00,
2013-09-20 10:45:00,72.8,62.8,30.06,South,189,2.0,5.0,71,0.00,,,0.00,Wunderground v.1.15,2013-09-20 14:45:00,
2013-09-20 10:50:00,73.0,62.6,30.06,SW,224,1.0,2.0,70,0.00,,,0.00,Wunderground v.1.15,2013-09-20 14:50:00,
2013-09-20 10:55:00,73.2,61.6,30.06,ENE,64,2.0,5.0,67,0.00,,,0.00,Wunderground v.1.15,2013-09-20 14:55:00,
2013-09-20 11:00:00,73.6,62.4,30.06,SSW,202,2.0,2.0,68,0.00,,,0.00,Wunderground v.1.15,2013-09-20 15:00:00,
2013-09-20 11:05:00,72.9,61.3,30.06,North,8,0.0,3.0,67,0.00,,,0.00,Wunderground v.1.15,2013-09-20 15:05:00,
2013-09-20 11:10:00,73.4,61.3,30.06,ENE,73,1.0,1.0,66,0.00,,,0.00,Wunderground v.1.15,2013-09-20 15:10:00,
2013-09-20 11:15:00,74.4,61.9,30.06,SSW,200,6.0,8.0,65,0.00,,,0.00,Wunderground v.1.15,2013-09-20 15:15:00,
2013-09-20 11:20:00,75.0,62.9,30.05,SSW,194,5.0,7.0,66,0.00,,,0.00,Wunderground v.1.15,2013-09-20 15:20:00,
2013-09-20 11:25:00,75.5,62.5,30.05,SW,217,1.0,7.0,64,0.00,,,0.00,Wunderground v.1.15,2013-09-20 15:25:00,
2013-09-20 11:30:00,75.7,62.2,30.05,SSW,198,1.0,3.0,63,0.00,,,0.00,Wunderground v.1.15,2013-09-20 15:30:00,
2013-09-20 11:35:00,75.1,62.5,30.05,SE,134,2.0,4.0,65,0.00,,,0.00,Wunderground v.1.15,2013-09-20 15:35:00,
2013-09-20 11:40:00,75.0,61.5,30.05,South,170,0.0,1.0,63,0.00,,,0.00,Wunderground v.1.15,2013-09-20 15:40:00,
2013-09-20 11:45:00,75.5,62.9,30.05,East,84,1.0,3.0,65,0.00,,,0.00,Wunderground v.1.15,2013-09-20 15:45:00,
2013-09-20 11:50:00,76.8,64.1,30.05,SSW,202,0.0,2.0,65,0.00,,,0.00,Wunderground v.1.15,2013-09-20 15:50:00,
2013-09-20 11:55:00,77.1,62.6,30.05,SE,136,1.0,4.0,61,0.00,,,0.00,Wunderground v.1.15,2013-09-20 15:55:00,
2013-09-20 12:00:00,77.3,62.3,30.04,WSW,253,2.0,2.0,60,0.00,,,0.00,Wunderground v.1.15,2013-09-20 16:00:00,
2013-09-20 12:05:00,77.5,63.9,30.04,South,185,0.0,5.0,63,0.00,,,0.00,Wunderground v.1.15,2013-09-20 16:05:00,
2013-09-20 12:10:00,77.7,64.1,30.04,SW,224,2.0,2.0,63,0.00,,,0.00,Wunderground v.1.15,2013-09-20 16:10:00,
2013-09-20 12:15:00,77.1,62.1,30.04,South,183,2.0,5.0,60,0.00,,,0.00,Wunderground v.1.15,2013-09-20 16:15:00,
2013-09-20 12:20:00,78.1,63.1,30.04,NE,47,0.0,3.0,60,0.00,,,0.00,Wunderground v.1.15,2013-09-20 16:20:00,
2013-09-20 12:25:00,78.3,63.3,30.04,SW,223,4.0,9.0,60,0.00,,,0.00,Wunderground v.1.15,2013-09-20 16:25:00,
2013-09-20 12:30:00,78.3,63.3,30.04,SW,236,4.0,5.0,60,0.00,,,0.00,Wunderground v.1.15,2013-09-20 16:30:00,
2013-09-20 12:35:00,78.1,61.6,30.04,SSW,196,1.0,6.0,57,0.00,,,0.00,Wunderground v.1.15,2013-09-20 16:35:00,
2013-09-20 12:40:00,77.3,62.8,30.04,SSW,198,2.0,4.0,61,0.00,,,0.00,Wunderground v.1.15,2013-09-20 16:40:00,
2013-09-20 12:45:00,78.1,62.6,30.03,West,271,0.0,5.0,59,0.00,,,0.00,Wunderground v.1.15,2013-09-20 16:45:00,
2013-09-20 12:50:00,78.8,63.7,30.03,SSW,209,1.0,2.0,60,0.00,,,0.00,Wunderground v.1.15,2013-09-20 16:50:00,
2013-09-20 12:55:00,78.5,63.5,30.03,SSW,198,6.0,8.0,60,0.00,,,0.00,Wunderground v.1.15,2013-09-20 16:55:00,
2013-09-20 13:00:00,77.6,62.1,30.03,SSW,200,2.0,5.0,59,0.00,,,0.00,Wunderground v.1.15,2013-09-20 17:00:00,
2013-09-20 13:05:00,78.4,62.9,30.03,West,281,1.0,7.0,59,0.00,,,0.00,Wunderground v.1.15,2013-09-20 17:05:00,
2013-09-20 13:10:00,79.1,63.5,30.02,South,184,1.0,4.0,59,0.00,,,0.00,Wunderground v.1.15,2013-09-20 17:10:00,
2013-09-20 13:15:00,78.9,62.9,30.02,ESE,116,3.0,5.0,58,0.00,,,0.00,Wunderground v.1.15,2013-09-20 17:15:00,
2013-09-20 13:20:00,78.6,63.6,30.02,South,175,3.0,4.0,60,0.00,,,0.00,Wunderground v.1.15,2013-09-20 17:20:00,
2013-09-20 13:26:00,78.1,62.1,30.02,SW,215,4.0,7.0,58,0.00,,,0.00,Wunderground v.1.15,2013-09-20 17:26:00,
2013-09-20 13:31:00,79.2,63.1,30.02,NNW,330,2.0,3.0,58,0.00,,,0.00,Wunderground v.1.15,2013-09-20 17:31:00,
2013-09-20 13:36:00,79.9,63.3,30.02,SSE,157,0.0,4.0,57,0.00,,,0.00,Wunderground v.1.15,2013-09-20 17:36:00,
2013-09-20 13:41:00,78.3,62.3,30.02,East,89,2.0,2.0,58,0.00,,,0.00,Wunderground v.1.15,2013-09-20 17:41:00,
2013-09-20 13:46:00,79.1,65.0,30.02,South,188,4.0,5.0,62,0.00,,,0.00,Wunderground v.1.15,2013-09-20 17:46:00,
2013-09-20 13:51:00,79.8,63.7,30.01,NNW,330,1.0,4.0,58,0.00,,,0.00,Wunderground v.1.15,2013-09-20 17:51:00,
2013-09-20 13:56:00,80.3,65.6,30.01,South,182,1.0,6.0,61,0.00,,,0.00,Wunderground v.1.15,2013-09-20 17:56:00,
2013-09-20 14:01:00,81.8,64.6,30.01,SE,137,0.0,3.0,56,0.00,,,0.00,Wunderground v.1.15,2013-09-20 18:01:00,
2013-09-20 14:06:00,80.1,62.5,30.01,NW,309,2.0,3.0,55,0.00,,,0.00,Wunderground v.1.15,2013-09-20 18:06:00,
2013-09-20 14:11:00,78.7,63.2,30.01,SW,219,3.0,4.0,59,0.00,,,0.00,Wunderground v.1.15,2013-09-20 18:11:00,
2013-09-20 14:16:00,78.3,63.3,30.01,West,269,1.0,4.0,60,0.00,,,0.00,Wunderground v.1.15,2013-09-20 18:16:00,
2013-09-20 14:21:00,79.7,63.1,30.01,SSE,153,1.0,3.0,57,0.00,,,0.00,Wunderground v.1.15,2013-09-20 18:21:00,
2013-09-20 14:26:00,81.2,63.5,30.01,North,3,1.0,4.0,55,0.00,,,0.00,Wunderground v.1.15,2013-09-20 18:26:00,
2013-09-20 14:31:00,79.6,63.5,30.01,West,266,1.0,2.0,58,0.00,,,0.00,Wunderground v.1.15,2013-09-20 18:31:00,
2013-09-20 14:36:00,78.7,63.2,30.01,WSW,254,3.0,9.0,59,0.00,,,0.00,Wunderground v.1.15,2013-09-20 18:36:00,
2013-09-20 14:41:00,78.8,62.8,30.00,SSW,198,3.0,4.0,58,0.00,,,0.00,Wunderground v.1.15,2013-09-20 18:41:00,
2013-09-20 14:46:00,78.0,63.0,30.00,SSW,197,2.0,6.0,60,0.00,,,0.00,Wunderground v.1.15,2013-09-20 18:46:00,
2013-09-20 14:51:00,79.4,64.8,30.00,SW,227,1.0,3.0,61,0.00,,,0.00,Wunderground v.1.15,2013-09-20 18:51:00,
2013-09-20 14:56:00,78.4,62.9,30.00,ESE,113,1.0,5.0,59,0.00,,,0.00,Wunderground v.1.15,2013-09-20 18:56:00,
2013-09-20 15:01:00,78.0,62.5,30.00,South,190,3.0,3.0,59,0.00,,,0.00,Wunderground v.1.15,2013-09-20 19:01:00,
2013-09-20 15:06:00,78.7,62.7,30.00,SSW,211,4.0,7.0,58,0.00,,,0.00,Wunderground v.1.15,2013-09-20 19:06:00,
2013-09-20 15:11:00,78.4,62.4,30.00,SSW,203,3.0,4.0,58,0.00,,,0.00,Wunderground v.1.15,2013-09-20 19:11:00,
2013-09-20 15:16:00,78.4,61.9,30.00,WSW,258,2.0,6.0,57,0.00,,,0.00,Wunderground v.1.15,2013-09-20 19:16:00,
2013-09-20 15:21:00,78.4,63.4,29.99,SW,226,3.0,4.0,60,0.00,,,0.00,Wunderground v.1.15,2013-09-20 19:21:00,
2013-09-20 15:26:00,78.4,62.9,29.99,SSW,207,0.0,9.0,59,0.00,,,0.00,Wunderground v.1.15,2013-09-20 19:26:00,
2013-09-20 15:31:00,78.3,61.8,29.99,SSW,196,0.0,5.0,57,0.00,,,0.00,Wunderground v.1.15,2013-09-20 19:31:00,
2013-09-20 15:36:00,77.3,60.4,29.99,South,182,1.0,7.0,56,0.00,,,0.00,Wunderground v.1.15,2013-09-20 19:36:00,
2013-09-20 15:41:00,77.7,62.7,29.99,SW,229,2.0,6.0,60,0.00,,,0.00,Wunderground v.1.15,2013-09-20 19:41:00,
2013-09-20 15:46:00,78.2,63.2,29.99,SW,220,2.0,6.0,60,0.00,,,0.00,Wunderground v.1.15,2013-09-20 19:46:00,
2013-09-20 15:51:00,78.0,62.0,29.99,South,189,2.0,3.0,58,0.00,,,0.00,Wunderground v.1.15,2013-09-20 19:51:00,
2013-09-20 15:56:00,78.4,62.9,29.99,SW,223,0.0,3.0,59,0.00,,,0.00,Wunderground v.1.15,2013-09-20 19:56:00,
2013-09-20 16:01:00,77.9,62.4,29.99,South,178,1.0,4.0,59,0.00,,,0.00,Wunderground v.1.15,2013-09-20 20:01:00,
2013-09-20 16:06:00,77.6,62.6,29.99,East,86,1.0,5.0,60,0.00,,,0.00,Wunderground v.1.15,2013-09-20 20:06:00,
2013-09-20 16:11:00,77.9,61.4,29.99,ENE,69,1.0,3.0,57,0.00,,,0.00,Wunderground v.1.15,2013-09-20 20:11:00,
2013-09-20 16:16:00,77.8,62.8,29.98,SSW,204,5.0,6.0,60,0.00,,,0.00,Wunderground v.1.15,2013-09-20 20:16:00,
2013-09-20 16:21:00,77.7,62.2,29.98,SSE,154,1.0,4.0,59,0.00,,,0.00,Wunderground v.1.15,2013-09-20 20:21:00,
2013-09-20 16:26:00,77.7,62.2,29.97,West,270,2.0,4.0,59,0.00,,,0.00,Wunderground v.1.15,2013-09-20 20:26:00,
2013-09-20 16:31:00,77.5,61.6,29.97,SSW,207,4.0,4.0,58,0.00,,,0.00,Wunderground v.1.15,2013-09-20 20:31:00,
2013-09-20 16:36:00,77.6,61.7,29.97,SSW,197,2.0,6.0,58,0.00,,,0.00,Wunderground v.1.15,2013-09-20 20:36:00,
2013-09-20 16:41:00,77.9,62.4,29.97,SW,216,3.0,4.0,59,0.00,,,0.00,Wunderground v.1.15,2013-09-20 20:41:00,
2013-09-20 16:46:00,78.3,62.8,29.97,SSW,204,1.0,5.0,59,0.00,,,0.00,Wunderground v.1.15,2013-09-20 20:46:00,
2013-09-20 16:52:00,78.4,63.4,29.97,SSW,209,2.0,5.0,60,0.00,,,0.00,Wunderground v.1.15,2013-09-20 20:52:00,
2013-09-20 16:57:00,77.9,62.4,29.96,SW,225,1.0,5.0,59,0.00,,,0.00,Wunderground v.1.15,2013-09-20 20:57:00,
2013-09-20 17:01:00,77.6,62.1,29.96,SW,222,0.0,2.0,59,0.00,,,0.00,Wunderground v.1.15,2013-09-20 21:01:00,
2013-09-20 17:07:00,77.5,61.6,29.96,WSW,256,1.0,2.0,58,0.00,,,0.00,Wunderground v.1.15,2013-09-20 21:07:00,
2013-09-20 17:12:00,77.6,61.7,29.96,SSW,200,0.0,3.0,58,0.00,,,0.00,Wunderground v.1.15,2013-09-20 21:12:00,
2013-09-20 17:17:00,77.2,60.8,29.95,SSE,166,1.0,3.0,57,0.00,,,0.00,Wunderground v.1.15,2013-09-20 21:17:00,
2013-09-20 17:22:00,77.1,61.7,29.95,South,189,1.0,5.0,59,0.00,,,0.00,Wunderground v.1.15,2013-09-20 21:22:00,
2013-09-20 17:27:00,77.3,61.9,29.95,NE,53,1.0,5.0,59,0.00,,,0.00,Wunderground v.1.15,2013-09-20 21:27:00,
2013-09-20 17:32:00,77.5,62.0,29.95,SSW,194,2.0,5.0,59,0.00,,,0.00,Wunderground v.1.15,2013-09-20 21:32:00,
2013-09-20 17:37:00,77.1,62.1,29.95,SE,128,0.0,5.0,60,0.00,,,0.00,Wunderground v.1.15,2013-09-20 21:37:00,
2013-09-20 17:42:00,76.9,61.5,29.95,East,98,1.0,2.0,59,0.00,,,0.00,Wunderground v.1.15,2013-09-20 21:42:00,
2013-09-20 17:47:00,76.7,61.3,29.95,ESE,121,1.0,3.0,59,0.00,,,0.00,Wunderground v.1.15,2013-09-20 21:47:00,
2013-09-20 17:52:00,76.6,61.7,29.95,ESE,121,1.0,2.0,60,0.00,,,0.00,Wunderground v.1.15,2013-09-20 21:52:00,
2013-09-20 17:57:00,76.4,61.5,29.95,SSW,211,0.0,3.0,60,0.00,,,0.00,Wunderground v.1.15,2013-09-20 21:57:00,
2013-09-20 18:02:00,76.0,61.1,29.95,South,170,1.0,1.0,60,0.00,,,0.00,Wunderground v.1.15,2013-09-20 22:02:00,
2013-09-20 18:07:00,75.8,61.4,29.95,SW,221,0.0,2.0,61,0.00,,,0.00,Wunderground v.1.15,2013-09-20 22:07:00,
2013-09-20 18:12:00,75.6,61.7,29.94,SSW,203,0.0,2.0,62,0.00,,,0.00,Wunderground v.1.15,2013-09-20 22:12:00,
2013-09-20 18:17:00,75.5,62.0,29.95,SE,132,1.0,2.0,63,0.00,,,0.00,Wunderground v.1.15,2013-09-20 22:17:00,
2013-09-20 18:22:00,75.2,62.2,29.94,SE,132,0.0,1.0,64,0.00,,,0.00,Wunderground v.1.15,2013-09-20 22:22:00,
2013-09-20 18:27:00,75.0,62.0,29.95,North,9,1.0,2.0,64,0.00,,,0.00,Wunderground v.1.15,2013-09-20 22:27:00,
2013-09-20 18:32:00,74.6,61.6,29.95,NNE,24,0.0,1.0,64,0.00,,,0.00,Wunderground v.1.15,2013-09-20 22:32:00,
2013-09-20 18:37:00,74.3,61.8,29.95,NNE,24,0.0,1.0,65,0.00,,,0.00,Wunderground v.1.15,2013-09-20 22:37:00,
2013-09-20 18:42:00,73.8,61.7,29.94,NNE,24,1.0,1.0,66,0.00,,,0.00,Wunderground v.1.15,2013-09-20 22:42:00,
2013-09-20 18:47:00,73.3,62.1,29.94,NNE,24,0.0,3.0,68,0.00,,,0.00,Wunderground v.1.15,2013-09-20 22:47:00,
2013-09-20 18:52:00,73.0,62.2,29.94,NNE,24,0.0,1.0,69,0.00,,,0.00,Wunderground v.1.15,2013-09-20 22:52:00,
2013-09-20 18:57:00,72.5,62.2,29.94,NNE,24,0.0,1.0,70,0.00,,,0.00,Wunderground v.1.15,2013-09-20 22:57:00,
2013-09-20 19:02:00,72.0,61.7,29.94,NNE,24,0.0,0.0,70,0.00,,,0.00,Wunderground v.1.15,2013-09-20 23:02:00,
2013-09-20 19:07:00,71.7,61.8,29.94,NNE,24,0.0,0.0,71,0.00,,,0.00,Wunderground v.1.15,2013-09-20 23:07:00,
2013-09-20 19:12:00,71.5,62.0,29.94,NNE,24,0.0,0.0,72,0.00,,,0.00,Wunderground v.1.15,2013-09-20 23:12:00,
2013-09-20 19:17:00,71.1,61.6,29.94,NNE,24,0.0,0.0,72,0.00,,,0.00,Wunderground v.1.15,2013-09-20 23:17:00,
2013-09-20 19:22:00,71.1,61.6,29.94,NNE,24,0.0,2.0,72,0.00,,,0.00,Wunderground v.1.15,2013-09-20 23:22:00,
2013-09-20 19:27:00,71.0,61.9,29.94,NNE,24,1.0,2.0,73,0.00,,,0.00,Wunderground v.1.15,2013-09-20 23:27:00,
2013-09-20 19:32:00,70.8,61.7,29.94,NNE,24,0.0,1.0,73,0.00,,,0.00,Wunderground v.1.15,2013-09-20 23:32:00,
2013-09-20 19:37:00,70.7,61.6,29.94,NNE,32,0.0,3.0,73,0.00,,,0.00,Wunderground v.1.15,2013-09-20 23:37:00,
2013-09-20 19:42:00,70.4,61.3,29.94,NNE,32,0.0,1.0,73,0.00,,,0.00,Wunderground v.1.15,2013-09-20 23:42:00,
2013-09-20 19:47:00,70.2,61.5,29.94,NNE,32,1.0,1.0,74,0.00,,,0.00,Wunderground v.1.15,2013-09-20 23:47:00,
2013-09-20 19:52:00,70.1,61.4,29.95,North,3,0.0,1.0,74,0.00,,,0.00,Wunderground v.1.15,2013-09-20 23:52:00,
2013-09-20 19:57:00,70.2,61.5,29.95,ENE,62,0.0,3.0,74,0.00,,,0.00,Wunderground v.1.15,2013-09-20 23:57:00,
2013-09-20 20:02:00,70.0,61.7,29.95,ESE,102,1.0,2.0,75,0.00,,,0.00,Wunderground v.1.15,2013-09-21 00:02:00,
2013-09-20 20:07:00,69.9,61.6,29.95,NE,45,0.0,5.0,75,0.00,,,0.00,Wunderground v.1.15,2013-09-21 00:07:00,
2013-09-20 20:12:00,69.8,61.5,29.95,NE,45,0.0,2.0,75,0.00,,,0.00,Wunderground v.1.15,2013-09-21 00:12:00,
2013-09-20 20:17:00,69.6,61.3,29.96,NNE,31,1.0,3.0,75,0.00,,,0.00,Wunderground v.1.15,2013-09-21 00:17:00,
2013-09-20 20:22:00,69.4,61.1,29.96,NE,34,1.0,2.0,75,0.00,,,0.00,Wunderground v.1.15,2013-09-21 00:22:00,
2013-09-20 20:27:00,69.2,61.3,29.96,NE,34,1.0,2.0,76,0.00,,,0.00,Wunderground v.1.15,2013-09-21 00:27:00,
2013-09-20 20:32:00,69.1,61.2,29.96,East,101,0.0,3.0,76,0.00,,,0.00,Wunderground v.1.15,2013-09-21 00:32:00,
2013-09-20 20:37:00,68.8,60.9,29.96,ESE,111,0.0,3.0,76,0.00,,,0.00,Wunderground v.1.15,2013-09-21 00:37:00,
2013-09-20 20:42:00,68.6,61.1,29.96,ESE,111,1.0,1.0,77,0.00,,,0.00,Wunderground v.1.15,2013-09-21 00:42:00,
2013-09-20 20:47:00,68.4,60.9,29.96,ESE,111,0.0,1.0,77,0.00,,,0.00,Wunderground v.1.15,2013-09-21 00:47:00,
2013-09-20 20:52:00,68.2,60.7,29.96,ESE,111,1.0,2.0,77,0.00,,,0.00,Wunderground v.1.15,2013-09-21 00:52:00,
2013-09-20 20:57:00,68.0,60.9,29.96,NNE,13,1.0,2.0,78,0.00,,,0.00,Wunderground v.1.15,2013-09-21 00:57:00,
2013-09-20 21:03:00,67.9,60.8,29.96,NNE,13,1.0,1.0,78,0.00,,,0.00,Wunderground v.1.15,2013-09-21 01:03:00,
2013-09-20 21:08:00,67.6,60.9,29.97,SE,130,1.0,3.0,79,0.00,,,0.00,Wunderground v.1.15,2013-09-21 01:08:00,
2013-09-20 21:13:00,67.4,60.7,29.97,ENE,70,0.0,2.0,79,0.00,,,0.00,Wunderground v.1.15,2013-09-21 01:13:00,
2013-09-20 21:18:00,67.2,60.5,29.97,ENE,70,0.0,2.0,79,0.00,,,0.00,Wunderground v.1.15,2013-09-21 01:18:00,
2013-09-20 21:23:00,67.3,60.6,29.97,East,100,0.0,3.0,79,0.00,,,0.00,Wunderground v.1.15,2013-09-21 01:23:00,
2013-09-20 21:28:00,67.5,60.4,29.97,ENE,67,2.0,3.0,78,0.00,,,0.00,Wunderground v.1.15,2013-09-21 01:28:00,
2013-09-20 21:33:00,67.4,60.3,29.97,NE,37,1.0,2.0,78,0.00,,,0.00,Wunderground v.1.15,2013-09-21 01:33:00,
2013-09-20 21:38:00,67.2,60.5,29.97,NNE,13,0.0,2.0,79,0.00,,,0.00,Wunderground v.1.15,2013-09-21 01:38:00,
2013-09-20 21:43:00,66.9,60.2,29.97,NNE,13,0.0,0.0,79,0.00,,,0.00,Wunderground v.1.15,2013-09-21 01:43:00,
2013-09-20 21:48:00,66.8,60.1,29.97,NNE,13,0.0,1.0,79,0.00,,,0.00,Wunderground v.1.15,2013-09-21 01:48:00,
2013-09-20 21:53:00,66.6,60.2,29.96,NNE,30,2.0,3.0,80,0.00,,,0.00,Wunderground v.1.15,2013-09-21 01:53:00,
2013-09-20 21:58:00,66.6,60.2,29.96,ENE,66,1.0,3.0,80,0.00,,,0.00,Wunderground v.1.15,2013-09-21 01:58:00,
2013-09-20 22:03:00,66.5,59.8,29.97,NE,47,1.0,1.0,79,0.00,,,0.00,Wunderground v.1.15,2013-09-21 02:03:00,
2013-09-20 22:08:00,66.2,59.8,29.97,East,88,0.0,2.0,80,0.00,,,0.00,Wunderground v.1.15,2013-09-21 02:08:00,
2013-09-20 22:13:00,66.0,60.0,29.97,East,88,0.0,1.0,81,0.00,,,0.00,Wunderground v.1.15,2013-09-21 02:13:00,
2013-09-20 22:18:00,65.9,59.9,29.97,East,88,0.0,1.0,81,0.00,,,0.00,Wunderground v.1.15,2013-09-21 02:18:00,
2013-09-20 22:23:00,65.8,59.8,29.97,East,88,0.0,1.0,81,0.00,,,0.00,Wunderground v.1.15,2013-09-21 02:23:00,
2013-09-20 22:28:00,65.7,60.1,29.97,East,88,0.0,1.0,82,0.00,,,0.00,Wunderground v.1.15,2013-09-21 02:28:00,
2013-09-20 22:33:00,65.8,59.8,29.97,East,88,0.0,0.0,81,0.00,,,0.00,Wunderground v.1.15,2013-09-21 02:33:00,
2013-09-20 22:38:00,65.8,60.2,29.97,East,88,0.0,1.0,82,0.00,,,0.00,Wunderground v.1.15,2013-09-21 02:38:00,
2013-09-20 22:43:00,65.9,59.9,29.97,East,88,1.0,2.0,81,0.00,,,0.00,Wunderground v.1.15,2013-09-21 02:43:00,
2013-09-20 22:48:00,65.8,59.8,29.96,NNE,27,1.0,2.0,81,0.00,,,0.00,Wunderground v.1.15,2013-09-21 02:48:00,
2013-09-20 22:53:00,65.6,60.0,29.96,NNE,28,2.0,2.0,82,0.00,,,0.00,Wunderground v.1.15,2013-09-21 02:53:00,
2013-09-20 22:58:00,65.4,59.8,29.96,NE,53,0.0,2.0,82,0.00,,,0.00,Wunderground v.1.15,2013-09-21 02:58:00,
2013-09-20 23:03:00,65.4,59.8,29.96,NE,53,1.0,2.0,82,0.00,,,0.00,Wunderground v.1.15,2013-09-21 03:03:00,
2013-09-20 23:08:00,65.2,59.9,29.96,NE,46,0.0,2.0,83,0.00,,,0.00,Wunderground v.1.15,2013-09-21 03:08:00,
2013-09-20 23:13:00,65.0,59.7,29.96,NE,46,0.0,0.0,83,0.00,,,0.00,Wunderground v.1.15,2013-09-21 03:13:00,
2013-09-20 23:18:00,64.9,59.9,29.96,NE,46,0.0,1.0,84,0.00,,,0.00,Wunderground v.1.15,2013-09-21 03:18:00,
2013-09-20 23:23:00,64.8,59.9,29.96,NE,46,0.0,3.0,84,0.00,,,0.00,Wunderground v.1.15,2013-09-21 03:23:00,
2013-09-20 23:28:00,64.6,59.7,29.96,NE,46,0.0,3.0,84,0.00,,,0.00,Wunderground v.1.15,2013-09-21 03:28:00,
2013-09-20 23:33:00,64.4,59.8,29.96,NE,47,0.0,2.0,85,0.00,,,0.00,Wunderground v.1.15,2013-09-21 03:33:00,
2013-09-20 23:38:00,64.2,59.9,29.96,NE,47,0.0,2.0,86,0.00,,,0.00,Wunderground v.1.15,2013-09-21 03:38:00,
2013-09-20 23:43:00,64.1,59.8,29.96,NE,47,0.0,1.0,86,0.00,,,0.00,Wunderground v.1.15,2013-09-21 03:43:00,
2013-09-20 23:48:00,64.1,59.8,29.96,NE,52,0.0,2.0,86,0.00,,,0.00,Wunderground v.1.15,2013-09-21 03:48:00,
2013-09-20 23:53:00,64.1,59.8,29.96,NE,52,0.0,1.0,86,0.00,,,0.00,Wunderground v.1.15,2013-09-21 03:53:00,
2013-09-20 23:58:00,64.1,59.8,29.95,NNE,15,0.0,3.0,86,0.00,,,0.00,Wunderground v.1.15,2013-09-21 03:58:00,